TimePST,TemperatureF,Dew PointF,Humidity,Sea Level PressureIn,VisibilityMPH,Wind Direction,Wind SpeedMPH,Gust SpeedMPH,PrecipitationIn,Events,Conditions,WindDirDegrees,DateUTC
12:53 AM,41.0,32.0,70,30.04,10.0,SW,12.7,-,N/A,,Partly Cloudy,230,2013-02-22 08:53:00
1:53 AM,41.0,32.0,70,30.04,10.0,SW,15.0,23.0,N/A,,Partly Cloudy,230,2013-02-22 09:53:00
2:53 AM,41.0,33.1,73,30.03,10.0,SW,15.0,-,N/A,,Clear,220,2013-02-22 10:53:00
3:53 AM,42.1,33.1,70,30.02,10.0,WSW,16.1,-,N/A,,Overcast,240,2013-02-22 11:53:00
4:53 AM,43.0,33.1,68,30.03,10.0,SW,12.7,-,N/A,,Overcast,230,2013-02-22 12:53:00
5:53 AM,43.0,33.1,68,30.03,10.0,SW,17.3,-,N/A,,Overcast,220,2013-02-22 13:53:00
6:53 AM,44.1,33.1,65,30.02,10.0,SSW,19.6,25.3,N/A,,Overcast,210,2013-02-22 14:53:00
7:53 AM,45.0,32.0,60,30.00,10.0,SSW,12.7,-,N/A,,Overcast,200,2013-02-22 15:53:00
8:53 AM,46.0,30.9,56,29.98,10.0,SSW,23.0,26.5,N/A,,Overcast,210,2013-02-22 16:53:00
9:53 AM,46.0,33.1,61,29.96,10.0,SSW,12.7,-,0.00,Rain,Light Rain,200,2013-02-22 17:53:00
10:53 AM,46.9,32.0,56,29.94,10.0,SSW,17.3,23.0,N/A,,Overcast,210,2013-02-22 18:53:00
11:53 AM,46.0,35.1,66,29.91,10.0,SSW,15.0,24.2,0.00,Rain,Light Rain,200,2013-02-22 19:53:00
12:53 PM,46.0,36.0,68,29.86,10.0,South,11.5,-,0.01,,Overcast,180,2013-02-22 20:53:00
1:53 PM,48.9,37.0,64,29.81,10.0,South,16.1,23.0,0.00,,Overcast,190,2013-02-22 21:53:00
2:53 PM,50.0,36.0,59,29.80,10.0,SW,20.7,31.1,N/A,,Mostly Cloudy,230,2013-02-22 22:53:00
3:53 PM,50.0,37.0,61,29.77,10.0,SW,21.9,31.1,N/A,,Mostly Cloudy,220,2013-02-22 23:53:00
4:53 PM,50.0,35.1,57,29.76,10.0,SW,31.1,39.1,N/A,,Clear,230,2013-02-23 00:53:00
5:53 PM,48.9,36.0,61,29.78,10.0,SW,16.1,-,N/A,,Overcast,220,2013-02-23 01:53:00
6:53 PM,48.0,36.0,63,29.76,10.0,SW,11.5,17.3,N/A,,Overcast,220,2013-02-23 02:53:00
7:53 PM,46.9,34.0,61,29.76,10.0,SW,23.0,33.4,N/A,,Clear,230,2013-02-23 03:53:00
8:53 PM,45.0,32.0,60,29.77,10.0,SW,23.0,34.5,N/A,,Clear,230,2013-02-23 04:53:00
9:53 PM,43.0,30.9,62,29.81,10.0,WSW,23.0,28.8,N/A,,Clear,240,2013-02-23 05:53:00
10:53 PM,42.1,30.0,62,29.85,10.0,West,12.7,-,N/A,,Clear,270,2013-02-23 06:53:00
11:53 PM,39.0,27.0,62,29.87,10.0,WSW,11.5,-,N/A,,Clear,240,2013-02-23 07:53:00